Flag for Australia

Past Weather in Kalgoorlie, Western Australia, Australia — Yesterday and Last 2 Weeks

Now
46 °F

Clear.


Feels Like: 43 °F
Forecast: 71 / 44 °F
Wind: 7 mph from Southwest

Location: Kalgoorlie Boulder Amo
Current Time: Sep 22, 2020 at 3:20:43 am
Latest Report: Sep 22, 2020 at 2:00 am
Visibility: N/A
Pressure30.12 "Hg
Humidity: 57%
Dew Point: 32 °F
Location of KalgoorlieLocation

Past Weather in Kalgoorlie — Graph

°F

Kalgoorlie Temperature Yesterday

Maximum temperature yesterday: 66 °F (at 3:00 pm)
Minimum temperature yesterday: 46 °F (at 4:00 am)
Average temperature yesterday: 55 °F

High & Low Weather Summary for the Past Weeks

 TemperatureHumidityPressure
High91 °F (Sep 15, 2:30 pm)94% (Sep 7, 7:41 am)30.42 "Hg (Sep 7, 7:41 am)
Low43 °F (Sep 18, 4:30 am)15% (Sep 19, 12:04 pm)29.62 "Hg (Sep 19, 2:00 pm)
Average62 °F50%30.06 "Hg
* Reported Sep 7 2:00 am — Sep 22 2:00 am, Kalgoorlie. Weather by CustomWeather, © 2020

Note: Actual official high and low records may vary slightly from our data, if they occured in-between our weather recording intervals... More about our weather records

Kalgoorlie Weather History for the Previous 24 Hours

Scroll right to see more
 ConditionsComfort  
Time TempWeatherWind HumidityBarometerVisibility
2:00 am
Tue, Sep 22
46 °FClear.7 mph57%30.12 "HgN/A
1:30 am48 °FClear.7 mph54%30.12 "HgN/A
1:00 am50 °FClear.7 mph50%30.12 "HgN/A
12:30 am50 °FClear.8 mph50%30.12 "HgN/A
12:00 am50 °FClear.7 mph50%30.12 "HgN/A
11:30 pm
Mon, Sep 21
50 °FClear.7 mph50%30.12 "HgN/A
11:00 pm52 °FClear.7 mph47%30.12 "HgN/A
10:30 pm52 °FClear.8 mph50%30.12 "HgN/A
10:00 pm54 °FClear.9 mph47%30.12 "HgN/A
9:30 pm55 °FClear.7 mph44%30.12 "HgN/A
9:00 pm55 °FClear.6 mph44%30.12 "HgN/A
8:30 pm55 °FClear.6 mph44%30.12 "HgN/A
8:00 pm57 °FClear.7 mph41%30.12 "HgN/A
7:30 pm57 °FClear.6 mph41%30.12 "HgN/A
7:00 pm57 °FClear.6 mph41%30.09 "HgN/A
6:30 pm59 °FClear.8 mph39%30.09 "HgN/A
6:00 pm61 °FClear.9 mph36%30.09 "HgN/A
5:30 pm63 °FSunny.14 mph34%30.07 "HgN/A
5:00 pm63 °FSunny.13 mph34%30.07 "HgN/A
4:30 pm64 °FSunny.15 mph32%30.07 "HgN/A
4:00 pm64 °FSunny.12 mph32%30.04 "HgN/A
3:30 pm66 °FScattered clouds.12 mph32%30.04 "HgN/A
3:00 pm66 °FScattered clouds.13 mph32%30.04 "HgN/A
2:30 pm64 °FScattered clouds.9 mph34%30.04 "HgN/A
2:00 pm64 °FMild.13 mph37%30.04 "HgN/A
1:30 pm64 °FPartly sunny.9 mph37%30.04 "HgN/A
1:00 pm64 °FScattered clouds.13 mph37%30.04 "HgN/A
12:30 pm63 °FPartly sunny.14 mph39%30.07 "HgN/A
12:00 pm61 °FPartly sunny.13 mph45%30.07 "HgN/A
11:30 am59 °FPartly sunny.10 mph48%30.07 "HgN/A
10:00 am55 °FOvercast.13 mph55%30.09 "HgN/A
9:30 am55 °FOvercast.16 mph59%30.09 "HgN/A
8:00 am52 °FOvercast.15 mph62%30.09 "HgN/A
7:30 am50 °FOvercast.15 mph67%30.07 "HgN/A
7:00 am48 °FOvercast.13 mph71%30.07 "HgN/A
6:30 am48 °FOvercast.14 mph71%30.07 "HgN/A
6:00 am46 °FOvercast.12 mph76%30.04 "HgN/A
5:30 am46 °FOvercast.12 mph76%30.04 "HgN/A
5:00 am46 °FPassing clouds.13 mph71%30.04 "HgN/A
4:30 am46 °FPassing clouds.13 mph71%30.04 "HgN/A
4:00 am46 °FPassing clouds.14 mph66%30.01 "HgN/A
3:00 am48 °FClear.12 mph58%30.01 "HgN/A
Weather by CustomWeather, © 2020

See weather overview